Regional Weather Roundup
Issued by NWS

Home | Current Version | Previous Version | Text Only | Print | Product List | Glossary On
Versions: 1 2 3 4 5 6 7 8 9 10 11 12 13 14 15 16 17 18 19 20 21 22 23 24 25 26 27 28 29 30 31 32 33 34 35 36 37 38 39 40 41 42 43 44 45 46 47 48 49 50
000
ASUS42 KKEY 260910
RWRKEY

FLORIDA REGIONAL WEATHER ROUNDUP FOR THE FLORIDA KEYS
NATIONAL WEATHER SERVICE KEY WEST FLORIDA
500 AM EDT SAT JUL 26 2014

...SOUTH FLORIDA AND THE KEYS...

CITY           SKY/WX    TMP DP  RH WIND       PRES   REMARKS
FORT MYERS     CLEAR     77  75  93 CALM      30.04F
SW REGIONAL AP CLEAR     76  73  91 CALM      30.05F
NAPLES         PTCLDY    78  77  96 NE5       30.04S
MIAMI          MOCLDY    81  76  84 W3        30.05S
WEST KENDALL   CLEAR     79  76  90 CALM      30.05S
HOMESTEAD      CLEAR     80  76  88 CALM      30.04F
MARATHON       PTCLDY    85  75  72 SE7       30.03F HX  93
BOCA CHICA NAS MOCLDY    85  75  72 SE12      30.03F HX  93
KEY WEST INTL  PTCLDY    86  75  69 SE9       30.03F HX  95

...INTERNATIONAL WEATHER...

CITY           SKY/WX    TMP DP  RH WIND       PRES   REMARKS
NASSAU BAHAMAS NOT AVBL
CANCUN MEXICO  PTCLDY    75  73  94 CALM      30.01F
COZUMEL MEXICO CLEAR     73  73 100 CALM      30.01F

ADJACENT COASTAL WATERS...

STATION/POSITION TIME  SKY/WX   TEMP    WIND        PRES    WAVE
                                AIR SEA DIR/SP/G            HT/PER
                 (UTC)          (F)     (DEG/KT/KT) (MB)    (FT/S)
PULASKI SHOAL LI 0900            85     170/  5/  6 1016.7F
SAND KEY         0900            85     130/ 11/ 14 1016.8F
SOMBRERO KEY     0900            85     130/ 11/ 13 1017.8F
LONG KEY         0800            85 88  160/ 13/ 14 1017.9F
MOLASSES REEF    0900            84 86  180/ 13/ 13 1017.0F
FOWEY ROCKS      0900            84 87  170/  7/  7 1017.8R
Buoy 42080       NOT AVBL

$$


USA.gov is the U.S. government's official web portal to all federal, state and local government web resources and services.